User: anonymous   Login
Location: Allentsteig
(48.6833°N, 15.3167°E)
Time: 00:03:49
(UTC+00:00)
Language:

COSMOS 2406 - Orbit

View from above orbital plane
View from above orbital plane
View from above satellite
View from above satellite

Ground track
Ground track

The orbit data is extracted from the following two-line orbital elements,

1 28352U 04021A   20332.42943813 -.00000053 +00000-0 -33389-5 0  9992
2 28352 071.0017 015.2199 0014752 354.3337 005.7614 14.11670299848511
Epoch (UTC): 27 November 2020 10:18:23
Eccentricity: 0.0014752
inclination: 71.0017°
perigee height: 843 km
apogee height: 864 km
right ascension of ascending node: 15.2199°
argument of perigee: 354.3337°
revolutions per day: 14.11670299
mean anomaly at epoch: 5.7614°
orbit number at epoch: 84851

The dashed part of the orbit path shows where the satellite is in the earth's shadow,  

DLR